Regional Weather Roundup
Issued by NWS

Home | Current Version | Previous Version | Graphics & Text | Print | Product List | Glossary On
Versions: 1 2 3 4 5 6 7 8 9 10 11 12 13 14 15 16 17 18 19 20 21 22 23 24 25 26 27 28 29 30 31 32 33 34 35 36 37 38 39 40 41 42 43 44 45 46 47 48 49 50
000
ASUS45 KSLC 251910
RWRUT

UTAH REGIONAL WEATHER ROUNDUP
NATIONAL WEATHER SERVICE SALT LAKE CITY UT
100 PM MDT SUN JUN 25 2017

UTZ001>011-023>025-252000-

NORTHERN UTAH

CITY           SKY/WX    TMP DP  RH WIND       PRES   REMARKS
BRIGHAM CITY   SUNNY     86  35  16 SE3       30.20F
HILL AFB       SUNNY     85  41  21 E10       30.22F
LOGAN          SUNNY     82  44  26 N7        30.22F
OGDEN          SUNNY     86  37  17 E5        30.20F
SALT LAKE CITY SUNNY     89  40  17 VRB3      30.18S
TOOELE VALLEY  SUNNY     82  46  28 N9        30.21S
WENDOVER         N/A     87  35  15 E8        30.19F
HEBER CITY     SUNNY     79  34  19 CALM      30.26F
WEST JORDAN    SUNNY     84  50  30 CALM      30.22S

$$

UTZ011>015-024>027-252000-

CENTRAL/NORTHEAST UTAH

CITY           SKY/WX    TMP DP  RH WIND       PRES   REMARKS
PROVO AIRPORT  SUNNY     80  43  26 SW6       30.22F
MOAB/CANYONLAN SUNNY     94  22   7 VRB6      30.14F
DELTA          SUNNY     86  27  11 E6        30.21F
PRICE          SUNNY     86  23  10 VRB7      30.26F
RICHFIELD      SUNNY     84  32  15 E5        30.24F
VERNAL         SUNNY     84  35  17 VRB3      30.25F

$$

UTZ013>016-019>022-027-252000-

SOUTHERN UTAH

CITY           SKY/WX    TMP DP  RH WIND       PRES   REMARKS
BRYCE CANYON   PTSUNNY   82  26  13 S10       30.39F
CEDAR CITY     PTSUNNY   87  21   9 CALM      30.25S
MILFORD        MOSUNNY   92  18   6 N14       30.20F
ST GEORGE      CLEAR     96  28   9 CALM      30.02S HX  90
KANAB          MOSUNNY   93  27   9 N5        30.21F
BLANDING       SUNNY     87  32  13 S5        30.32F

$$

REGIONAL REPORTS     COLORADO/ARIZONA

CITY           SKY/WX    TMP DP  RH WIND       PRES   REMARKS
CRAIG, CO      SUNNY     81  29  15 NW8       30.32F
GRAND JUNCTION SUNNY     90  29  11 SW8       30.17F
RIFLE, CO      SUNNY     87  22   9 VRB3      30.23F
MONTROSE, CO   SUNNY     85  29  13 NW7       30.25F
CORTEZ, CO     SUNNY     88  36  15 VRB3      30.25F
COLORADO CITY    N/A     97  30   9 CALM      30.19F HX  91
PAGE, AZ       NOT AVBL
GRAND CANYON   PTSUNNY   90  27  10 S8G20     30.31F
KINGMAN, AZ    SUNNY    104  40  11 SW7G20    30.02S HX  98
FLAGSTAFF, AZ  MOSUNNY   86  35  16 SW17G24   30.33F

$$

REGIONAL REPORTS    NEVADA/IDAHO/WYOMING

CITY           SKY/WX    TMP DP  RH WIND       PRES   REMARKS
LAS VEGAS, NV  MOSUNNY  106   9   3 NE8       29.92F HX  97
ELY, NY        MOSUNNY   86  31  13 VRB5      30.28F
ELKO, NV       SUNNY     86  24  10 CALM      30.21S
POCATELLO, ID  MOSUNNY   84  48  28 NW8       30.24F
BURLEY, ID     SUNNY     82  45  27 E9        30.19F
FORT BRIDGER,    N/A     74  29  18 E8        30.44F
EVANSTON, WY   SUNNY     75  33  21 VRB5      30.41S
ROCK SPRINGS,  SUNNY     72  29  20 CALM      30.40F
KEMMERER, WY     N/A     72  30  21 CALM      30.44S

$$



USA.gov is the U.S. government's official web portal to all federal, state and local government web resources and services.